COSMOS 1275 DEB, 19026

Orbit data source: Space-Track

COSMOS 1275 DEB, 19026 is space debris in LEO originally from a launch on Thu, 04 Jun 1981 UTC launched from the Plesetsk Missile And Space Complex (PKMTR). Debris objects in space refer to the collection of defunct objects orbiting the Earth. Examples of debris include non-operational satellites, rocket bodies, and fragments generated from explosions, collisions, or faulty payload assembly.

Loading next visibility...
Identifier
19026, 1981-053MD
Orbit
LEO
Country
Flag of CISCIS
Related business
Manufacturer
Unknown
Mission
Spacecraft
Bus & Motor
Unknown
Mass
Unknown
Launch date (UTC)
1981-06-04 (44 years ago)
Launch vehicle
Unknown
Launch site
Plesetsk Missile And Space Complex (PKMTR)
Object type
Payload
Rocket body
Debris
Shape & HBR
Unknown shape, 0.1 m
Radar Cross Section
Small (<0.1 m²)

Expand to show TLE details & history
Last TLE update: 22 hours ago

TLE from 22 hours ago
0 COSMOS 1275 DEB
1 19026U 81053MD  25292.09178839  .00001879  00000-0  17558-2 0  9993
2 19026  83.1649 315.1314 0115021  58.9503 357.0622 13.78389872 18289
Epoch: 2025-10-19T02:12Z
TLE epoch observation values (Epoch: 2025-10-19T02:12:10.516Z)
Latitude
55.44455°
Longitude
-95.75621°
Altitude
894.393 km
Speed
7.453 km/s
True Right ascension
21h 40m 24s
True Declination
55° 17' 12"
Sunlit
Object was in daylight at epoch
Visualization orbit readout
Latitude
Unknown
Longitude
Unknown
Altitude
Unknown
Speed
Unknown
Apparent Right ascension
Unknown
Apparent Declination
Unknown
Sunlit
N/A
Visualization observer readout
Local Sidereal Time
18:44:22
Azimuth
Unknown
Elevation
Unknown
Doppler factor
Unknown
Orbital elements
Apogee altitude
1,051.22 km
Perigee altitude
882.257 km
Semi-major axis
7,344.875 km
Eccentricity
0.0115
Inclination
83.1649°
RAAN
315.1314°
Arg. of periapsis
58.9503°
True anomaly
356.99366°
Mean anomaly
357.0622°
Eccentric anomaly
357.02803°
Mean motion
3.44799 °/min
Orbital period
104.41 mins
BSTAR
0.0017558
Loading maneuver chart data...
Computing Atmospheric mass density...

Documentation

Showing up to 5 results
|